| time (UTC) | temp C | wind direction | speed KPH | gust KPH | rain 1hr cm | rain 24hr cm | rain mn cm | humidity % | barometer mb |
| 20260902213057 | 35 | 201 | 3.2 | 6.4 | 0.00 | 0.00 | 0.00 | 55 | 1017.1 |
| 20260902211555 | 35 | 213 | 0.0 | 14.5 | 0.00 | 0.00 | 0.00 | 56 | 1017.2 |
| 20260902210042 | 34 | 169 | 3.2 | 11.3 | 0.00 | 0.00 | 0.00 | 57 | 1017.2 |
| 20260902204544 | 34 | 205 | 3.2 | 11.3 | 0.00 | 0.00 | 0.00 | 57 | 1017.4 |
| 20260902203041 | 35 | 217 | 3.2 | 17.7 | 0.00 | 0.00 | 0.00 | 56 | 1017.4 |
| 20260902201547 | 35 | 265 | 3.2 | 11.3 | 0.00 | 0.00 | 0.00 | 55 | 1017.4 |
| 20260902200056 | 35 | 215 | 1.6 | 6.4 | 0.00 | 0.00 | 0.00 | 56 | 1017.5 |
| 20260902194542 | 34 | 261 | 1.6 | 9.7 | 0.00 | 0.00 | 0.00 | 56 | 1017.7 |
| 20260902193041 | 34 | 171 | 1.6 | 8.0 | 0.00 | 0.00 | 0.00 | 59 | 1017.9 |
| 20260902191541 | 35 | 143 | 3.2 | 11.3 | 0.00 | 0.00 | 0.00 | 56 | 1018.1 |
| 20260902190055 | 34 | 306 | 1.6 | 12.9 | 0.00 | 0.00 | 0.00 | 56 | 1018.2 |
| 20260902184554 | 34 | 245 | 3.2 | 11.3 | 0.00 | 0.00 | 0.00 | 58 | 1018.2 |
| 20260902183052 | 34 | 177 | 3.2 | 9.7 | 0.00 | 0.00 | 0.00 | 57 | 1018.4 |
| 20260902181544 | 34 | 111 | 3.2 | 12.9 | 0.00 | 0.00 | 0.00 | 56 | 1018.5 |
| 20260902180103 | 34 | 227 | 3.2 | 12.9 | 0.00 | 0.00 | 0.00 | 58 | 1018.6 |
| 20260902174544 | 33 | 258 | 3.2 | 14.5 | 0.00 | 0.00 | 0.00 | 59 | 1018.7 |
| 20260902173054 | 33 | 285 | 1.6 | 11.3 | 0.00 | 0.00 | 0.00 | 63 | 1018.9 |
| 20260902171550 | 33 | 141 | 3.2 | 8.0 | 0.00 | 0.00 | 0.00 | 63 | 1019.1 |
| 20260902170042 | 33 | 196 | 6.4 | 19.3 | 0.00 | 0.00 | 0.00 | 63 | 1019.2 |
| 20260902164541 | 32 | 149 | 6.4 | 12.9 | 0.00 | 0.00 | 0.00 | 64 | 1019.4 |
| 20260902163040 | 32 | 0 | 4.8 | 14.5 | 0.00 | 0.00 | 0.00 | 64 | 1019.3 |
| 20260902161552 | 33 | 285 | 3.2 | 11.3 | 0.00 | 0.00 | 0.00 | 63 | 1019.4 |
| 20260902160040 | 32 | 279 | 1.6 | 9.7 | 0.00 | 0.00 | 0.00 | 64 | 1019.5 |
| 20260902154548 | 31 | 280 | 6.4 | 12.9 | 0.00 | 0.00 | 0.00 | 66 | 1019.7 |
| 20260902153044 | 31 | 295 | 3.2 | 6.4 | 0.00 | 0.00 | 0.00 | 66 | 1019.8 |
| 20260902151542 | 31 | 240 | 1.6 | 6.4 | 0.00 | 0.00 | 0.00 | 68 | 1019.8 |
| 20260902150053 | 31 | 194 | 1.6 | 8.0 | 0.00 | 0.00 | 0.00 | 71 | 1019.9 |
| 20260902144546 | 30 | 213 | 1.6 | 9.7 | 0.00 | 0.00 | 0.00 | 72 | 1019.7 |
| 20260902143041 | 29 | 222 | 3.2 | 6.4 | 0.00 | 0.00 | 0.00 | 74 | 1019.8 |
| 20260902141551 | 28 | 207 | 0.0 | 6.4 | 0.00 | 0.00 | 0.00 | 76 | 1019.7 |
| 20260902140046 | 28 | 290 | 1.6 | 8.0 | 0.00 | 0.00 | 0.00 | 77 | 1019.7 |
| 20260902134547 | 27 | 0 | 0.0 | 6.4 | 0.00 | 0.00 | 0.00 | 79 | 1019.7 |
| 20260902133041 | 27 | 0 | 0.0 | 6.4 | 0.00 | 0.00 | 0.00 | 81 | 1019.7 |
| 20260902131540 | 26 | 192 | 1.6 | 4.8 | 0.00 | 0.00 | 0.00 | 81 | 1019.8 |
| 20260902130051 | 26 | 340 | 1.6 | 8.0 | 0.00 | 0.00 | 0.00 | 82 | 1019.5 |
| 20260902124542 | 25 | 182 | 1.6 | 4.8 | 0.00 | 0.00 | 0.00 | 84 | 1019.5 |
| 20260902123057 | 25 | 197 | 1.6 | 4.8 | 0.00 | 0.00 | 0.00 | 85 | 1019.4 |
| 20260902121544 | 23 | 184 | 0.0 | 3.2 | 0.00 | 0.00 | 0.00 | 88 | 1019.4 |
| 20260902120040 | 23 | 0 | 0.0 | 0.0 | 0.00 | 0.00 | 0.00 | 89 | 1019.2 |
| 20260902114550 | 22 | 0 | 0.0 | 3.2 | 0.00 | 0.00 | 0.00 | 89 | 1019.1 |
| 20260902113052 | 22 | 0 | 0.0 | 0.0 | 0.00 | 0.00 | 0.00 | 89 | 1018.9 |
| 20260902111547 | 22 | 0 | 0.0 | 3.2 | 0.00 | 0.00 | 0.00 | 89 | 1018.9 |
| 20260902110055 | 22 | 0 | 0.0 | 0.0 | 0.00 | 0.00 | 0.00 | 89 | 1018.8 |
| 20260902104553 | 22 | 0 | 0.0 | 0.0 | 0.00 | 0.00 | 0.00 | 90 | 1018.9 |
| 20260902103045 | 22 | 0 | 0.0 | 0.0 | 0.00 | 0.00 | 0.00 | 90 | 1018.8 |
| 20260902101540 | 22 | 0 | 0.0 | 0.0 | 0.00 | 0.00 | 0.00 | 90 | 1018.7 |
| 20260902100053 | 22 | 0 | 0.0 | 0.0 | 0.00 | 0.00 | 0.00 | 89 | 1018.6 |
| 20260902094546 | 23 | 0 | 0.0 | 0.0 | 0.00 | 0.00 | 0.00 | 89 | 1018.7 |
| 20260902093043 | 23 | 0 | 0.0 | 0.0 | 0.00 | 0.00 | 0.00 | 89 | 1018.7 |
| 20260902091540 | 23 | 0 | 0.0 | 0.0 | 0.00 | 0.00 | 0.00 | 88 | 1018.6 |
| 20260902090047 | 23 | 0 | 0.0 | 0.0 | 0.00 | 0.00 | 0.00 | 88 | 1018.6 |
| 20260902084551 | 23 | 0 | 0.0 | 0.0 | 0.00 | 0.00 | 0.00 | 88 | 1018.4 |
| 20260902083043 | 23 | 0 | 0.0 | 0.0 | 0.00 | 0.00 | 0.00 | 87 | 1018.1 |
| 20260902081601 | 23 | 0 | 0.0 | 0.0 | 0.00 | 0.00 | 0.00 | 87 | 1018.0 |
| 20260902080046 | 23 | 0 | 0.0 | 0.0 | 0.00 | 0.00 | 0.00 | 87 | 1018.0 |
| 20260902074541 | 23 | 0 | 0.0 | 0.0 | 0.00 | 0.00 | 0.00 | 86 | 1017.9 |
| 20260902073050 | 24 | 0 | 0.0 | 0.0 | 0.00 | 0.00 | 0.00 | 86 | 1017.9 |
| 20260902071547 | 24 | 0 | 0.0 | 0.0 | 0.00 | 0.00 | 0.00 | 86 | 1017.8 |
| 20260902070046 | 24 | 0 | 0.0 | 0.0 | 0.00 | 0.00 | 0.00 | 85 | 1017.9 |
| 20260902064548 | 24 | 0 | 0.0 | 0.0 | 0.00 | 0.00 | 0.00 | 85 | 1017.9 |
| 20260902063052 | 25 | 0 | 0.0 | 0.0 | 0.00 | 0.00 | 0.00 | 84 | 1018.0 |
| 20260902061602 | 25 | 0 | 0.0 | 0.0 | 0.00 | 0.00 | 0.00 | 84 | 1018.0 |
| 20260902060041 | 25 | 0 | 0.0 | 0.0 | 0.00 | 0.00 | 0.00 | 83 | 1018.0 |
| 20260902054553 | 25 | 0 | 0.0 | 0.0 | 0.00 | 0.00 | 0.00 | 83 | 1018.0 |
| 20260902053047 | 25 | 0 | 0.0 | 3.2 | 0.00 | 0.00 | 0.00 | 82 | 1018.1 |
| 20260902051540 | 25 | 0 | 0.0 | 3.2 | 0.00 | 0.00 | 0.00 | 81 | 1018.0 |
| 20260902050041 | 25 | 0 | 0.0 | 3.2 | 0.00 | 0.00 | 0.00 | 81 | 1018.0 |
| 20260902044546 | 26 | 252 | 0.0 | 3.2 | 0.00 | 0.00 | 0.00 | 81 | 1018.1 |
| 20260902043044 | 26 | 0 | 0.0 | 0.0 | 0.00 | 0.00 | 0.00 | 81 | 1018.1 |
| 20260902041542 | 26 | 0 | 0.0 | 0.0 | 0.00 | 0.00 | 0.00 | 80 | 1018.1 |
| 20260902040041 | 26 | 0 | 0.0 | 0.0 | 0.00 | 0.00 | 0.00 | 79 | 1018.1 |
| 20260902034547 | 26 | 0 | 0.0 | 3.2 | 0.00 | 0.00 | 0.00 | 79 | 1018.2 |
| 20260902033045 | 26 | 0 | 0.0 | 0.0 | 0.00 | 0.00 | 0.00 | 79 | 1018.1 |
| 20260902031554 | 27 | 0 | 0.0 | 3.2 | 0.00 | 0.00 | 0.00 | 79 | 1018.0 |
| 20260902030050 | 27 | 0 | 0.0 | 3.2 | 0.00 | 0.00 | 0.00 | 78 | 1018.0 |
| 20260902024545 | 27 | 0 | 0.0 | 0.0 | 0.00 | 0.00 | 0.00 | 78 | 1018.1 |
| 20260902023044 | 27 | 0 | 0.0 | 0.0 | 0.00 | 0.00 | 0.00 | 78 | 1018.0 |
| 20260902021543 | 27 | 0 | 0.0 | 0.0 | 0.00 | 0.00 | 0.00 | 78 | 1018.1 |
| 20260902020041 | 27 | 0 | 0.0 | 0.0 | 0.00 | 0.00 | 0.00 | 77 | 1018.0 |
| 20260902014544 | 28 | 0 | 0.0 | 0.0 | 0.00 | 0.00 | 0.00 | 75 | 1018.0 |
| 20260902013051 | 28 | 0 | 0.0 | 0.0 | 0.00 | 0.00 | 0.00 | 74 | 1017.9 |
| 20260902011551 | 28 | 0 | 0.0 | 0.0 | 0.00 | 0.00 | 0.00 | 73 | 1017.8 |
| 20260902010105 | 29 | 0 | 0.0 | 0.0 | 0.00 | 0.00 | 0.00 | 72 | 1017.6 |
| 20260902004542 | 30 | 0 | 0.0 | 0.0 | 0.00 | 0.00 | 0.00 | 71 | 1017.5 |
| 20260902003050 | 30 | 0 | 0.0 | 3.2 | 0.00 | 0.00 | 0.00 | 70 | 1017.6 |
| 20260902001544 | 30 | 0 | 0.0 | 3.2 | 0.00 | 0.00 | 0.00 | 68 | 1017.6 |
| 20260902000053 | 31 | 264 | 0.0 | 1.6 | 0.00 | 0.00 | 0.00 | 66 | 1017.7 |
| 20260901234552 | 32 | 0 | 0.0 | 0.0 | 0.00 | 0.00 | 0.00 | 65 | 1017.7 |
| 20260901233042 | 32 | 0 | 0.0 | 3.2 | 0.00 | 0.00 | 0.00 | 62 | 1017.8 |
| 20260901231542 | 32 | 0 | 0.0 | 3.2 | 0.00 | 0.00 | 0.00 | 61 | 1017.8 |
| 20260901230041 | 33 | 193 | 0.0 | 3.2 | 0.00 | 0.00 | 0.00 | 59 | 1017.7 |
| 20260901224552 | 33 | 0 | 0.0 | 6.4 | 0.00 | 0.00 | 0.00 | 57 | 1017.7 |
| 20260901223041 | 34 | 208 | 1.6 | 4.8 | 0.00 | 0.00 | 0.00 | 56 | 1017.7 |
| 20260901221554 | 34 | 271 | 1.6 | 8.0 | 0.00 | 0.00 | 0.00 | 54 | 1017.7 |
| 20260901220046 | 34 | 237 | 1.6 | 6.4 | 0.00 | 0.00 | 0.00 | 56 | 1017.6 |
| 20260901214556 | 33 | 202 | 3.2 | 9.7 | 0.00 | 0.00 | 0.00 | 55 | 1017.6 |